(337849) = 2001 VH101

Discovered at Socorro on 2001-11-12 by LINEAR.

Orbit

Orbit type: Main Belt

Note: WebGL enabled browser required.

epoch2024-03-31.0
epoch JD2460400.5
perihelion date2023-10-29.72589
perihelion JD2460247.22589
argument of perihelion (°)359.47921
ascending node (°)28.25602
inclination (°)9.75316
eccentricity0.0856581
perihelion distance (AU)2.8702745
Tisserand w.r.t. Jupiter3.2
ΔV w.r.t. Earth (km/sec)10.9
semimajor axis (AU)3.1391698
mean anomaly (°)27.16129
mean daily motion (°/day)0.17720730
aphelion distance (AU)3.408
period (years)5.56
P-vector [x]0.88504542
P-vector [y]0.42770234
P-vector [z]0.18375341
Q-vector [x]-0.45854434
Q-vector [y]0.73300812
Q-vector [z]0.50243027
absolute magnitude15.57
phase slope0.15
uncertainty0
referenceMPEC 2024-C163
observations used339
oppositions13
arc length (days)8108
first opposition used2001
last opposition used2023
residual rms (arc-secs)0.79
perturbers coarse indicatorM-v
perturbers precise indicator003Ek
first observation date used2001-09-22.0
last observation date used2023-12-04.0
computer nameMPCLINUX
JD of orbit computation2456700.407929
perihelion JD uncertainty (days)5.3622E-04
argument of perihelion uncertainty (°)1.2273E-04
ascending node uncertainty (°)5.2354E-05
inclination uncertainty (°)2.1780E-05
eccentricity uncertainty 2.2285E-07
perihelion distance uncertainty (AU)7.1001E-07
Minimum Orbit Intersection Distances (in AU)
for orbit epoch: 2460200.5, reference: E2024-CG3
Mercury2.53371
Venus2.1471
Earth1.87466
Mars1.41696
Jupiter2.03978
Saturn6.04809
Uranus15.1108
Neptune26.9683

Observations

349 total observations over interval: 2001 09 22.40523 – 2023 12 04.254369
These data are available for download (format description).

Date (UT) J2000 RA J2000 Dec Magn Location Ref
2001 09 22.40523 03 17 31.25 +19 58 33.8 21.1 V 691 – Steward Observatory, Kitt Peak-Spacewatch MPS 44866
2001 09 22.42842 03 17 31.03 +19 58 38.1 21.3 V 691 – Steward Observatory, Kitt Peak-Spacewatch MPS 44866
2001 09 22.45133 03 17 30.79 +19 58 41.8 21.3 V 691 – Steward Observatory, Kitt Peak-Spacewatch MPS 44866
2001 10 14.32291 03 08 38.16 +20 42 23.5 19.3   704 – Lincoln Laboratory ETS, New Mexico MPS 44866
2001 10 14.33887 03 08 37.50 +20 42 24.2 20.2   704 – Lincoln Laboratory ETS, New Mexico MPS 44866
2001 10 14.37039 03 08 36.16 +20 42 26.2 19.8   704 – Lincoln Laboratory ETS, New Mexico MPS 44866
2001 10 14.38616 03 08 35.53 +20 42 26.8 20.0   704 – Lincoln Laboratory ETS, New Mexico MPS 44866
2001 10 26.41305 02 59 20.79 +20 48 48.7 19.8   644 – Palomar Mountain/NEAT MPS 44866
2001 10 26.42594 02 59 20.12 +20 48 48.6 19.3   644 – Palomar Mountain/NEAT MPS 44866
2001 10 26.44116 02 59 19.32 +20 48 48.8 19.5   644 – Palomar Mountain/NEAT MPS 44866
2001 11 12.28895 02 44 03.49 +20 38 35.0 18.9   704 – Lincoln Laboratory ETS, New Mexico MPS 44866
2001 11 12.30328 02 44 02.70 +20 38 35.2 19.4   704 – Lincoln Laboratory ETS, New Mexico MPS 44866
2001 11 12.31750 02 44 01.87 +20 38 34.7 19.2   704 – Lincoln Laboratory ETS, New Mexico MPS 44866
2001 11 12.33168 02 44 01.15 +20 38 32.5 19.5   704 – Lincoln Laboratory ETS, New Mexico MPS 44866
2001 11 12.34591 02 44 00.31 +20 38 31.3 19.3   704 – Lincoln Laboratory ETS, New Mexico MPS 44866
2001 11 19.21908 02 37 57.63 +20 30 06.8 19.4   704 – Lincoln Laboratory ETS, New Mexico MPS 44866
2001 11 19.23399 02 37 56.92 +20 30 05.9 20.0   704 – Lincoln Laboratory ETS, New Mexico MPS 44866
2001 11 19.26358 02 37 55.33 +20 30 03.4 19.9   704 – Lincoln Laboratory ETS, New Mexico MPS 44866
2001 11 19.27828 02 37 54.53 +20 30 02.2 19.7   704 – Lincoln Laboratory ETS, New Mexico MPS 44866
2001 11 24.16605 02 33 57.49 +20 23 36.6 19.7   704 – Lincoln Laboratory ETS, New Mexico MPS 49628
2001 11 24.18061 02 33 56.88 +20 23 36.2 19.7   704 – Lincoln Laboratory ETS, New Mexico MPS 49628
2001 11 24.19517 02 33 56.16 +20 23 33.6 19.5   704 – Lincoln Laboratory ETS, New Mexico MPS 49628
2001 11 24.20975 02 33 55.44 +20 23 32.1 19.4   704 – Lincoln Laboratory ETS, New Mexico MPS 49628
2003 01 24.31548 09 24 31.56 +29 40 12.1 20.0   644 – Palomar Mountain/NEAT MPS 71586
2003 01 24.33673 09 24 30.44 +29 40 17.3 20.3   644 – Palomar Mountain/NEAT MPS 71586
2003 01 24.36813 09 24 28.75 +29 40 25.1 20.2   644 – Palomar Mountain/NEAT MPS 71586
2003 01 29.37970 09 20 04.42 +29 59 54.1 19.9   644 – Palomar Mountain/NEAT MPS 71586
2003 01 29.40150 09 20 03.21 +29 59 58.6 19.8   644 – Palomar Mountain/NEAT MPS 71586
2003 01 29.43510 09 20 01.33 +30 00 06.0 20.4   644 – Palomar Mountain/NEAT MPS 71586
2003 02 01.23907 09 17 28.89 +30 09 45.7 20.0   644 – Palomar Mountain/NEAT MPS 71586
2003 02 01.26176 09 17 27.64 +30 09 50.3 20.1   644 – Palomar Mountain/NEAT MPS 71586
2003 02 01.28343 09 17 26.39 +30 09 54.6 19.7   644 – Palomar Mountain/NEAT MPS 71586
2004 05 16.16887 13 01 39.93 -06 18 15.6 21.7 V 691 – Steward Observatory, Kitt Peak-Spacewatch MPS 178288
2004 05 16.19871 13 01 39.12 -06 18 14.5 21.2 V 691 – Steward Observatory, Kitt Peak-Spacewatch MPS 178288
2004 05 16.23322 13 01 38.19 -06 18 14.4 21.4 V 691 – Steward Observatory, Kitt Peak-Spacewatch MPS 178288
2006 09 14.35126 23 50 45.70 -10 29 29.2 20.4 V 703 – Catalina Sky Survey MPS 178288
2006 09 14.35765 23 50 45.42 -10 29 29.6 20.4 V 703 – Catalina Sky Survey MPS 178288
2006 09 14.36356 23 50 45.20 -10 29 31.9 20.8 V 703 – Catalina Sky Survey MPS 178289
2006 09 14.37216 23 50 44.62 -10 29 33.1 20.1 V 703 – Catalina Sky Survey MPS 178289
2006 10 19.13836 23 25 40.47 -10 57 21.5 20.0 V 703 – Catalina Sky Survey MPS 182795
2006 10 19.14651 23 25 40.26 -10 57 21.4 20.6 V 703 – Catalina Sky Survey MPS 182795
2006 10 19.15469 23 25 39.93 -10 57 18.8 19.7 V 703 – Catalina Sky Survey MPS 182795
2006 10 19.16282 23 25 39.68 -10 57 19.4 20.3 V 703 – Catalina Sky Survey MPS 182795
2006 11 25.10010 23 23 23.17 -08 29 29.3 20.7 V G96 – Mt. Lemmon Survey MPS 190339
2006 11 25.10458 23 23 23.28 -08 29 27.9 20.9 V G96 – Mt. Lemmon Survey MPS 190339
2006 11 25.10907 23 23 23.31 -08 29 26.4 21.0 V G96 – Mt. Lemmon Survey MPS 190339
2006 11 25.11348 23 23 23.42 -08 29 24.3 21.0 V G96 – Mt. Lemmon Survey MPS 190339
2012 08 28.38560 02 35 58.81 +13 52 55.6 20.1 V G96 – Mt. Lemmon Survey MPS 430033
2012 08 28.39493 02 35 58.92 +13 52 57.6 20.3 V G96 – Mt. Lemmon Survey MPS 430033
2012 08 28.40426 02 35 59.02 +13 52 59.5 20.1 V G96 – Mt. Lemmon Survey MPS 430033
2012 08 28.41367 02 35 59.13 +13 53 01.4 20.2 V G96 – Mt. Lemmon Survey MPS 430033
2012 09 16.43297 02 35 41.74 +14 41 22.6 20.5 V G96 – Mt. Lemmon Survey MPS 431849
2012 09 16.43814 02 35 41.64 +14 41 23.3 20.6 V G96 – Mt. Lemmon Survey MPS 431849
2012 09 16.44337 02 35 41.53 +14 41 24.1 20.4 V G96 – Mt. Lemmon Survey MPS 431849
2012 09 16.44860 02 35 41.46 +14 41 24.3 20.7 V G96 – Mt. Lemmon Survey MPS 431849
2012 09 23.39554 02 33 23.76 +14 51 25.4 19.6 V G96 – Mt. Lemmon Survey MPS 433309
2012 09 23.40119 02 33 23.61 +14 51 25.3 19.6 V G96 – Mt. Lemmon Survey MPS 433309
2012 09 23.42491 02 33 22.96 +14 51 27.0 19.8 V G96 – Mt. Lemmon Survey MPS 433309
2012 09 23.43058 02 33 22.82 +14 51 27.6 19.8 V G96 – Mt. Lemmon Survey MPS 433309
2012 10 06.44936 02 26 07.22 +14 59 00.3 18.9 V 703 – Catalina Sky Survey MPS 434087
2012 10 06.45721 02 26 06.86 +14 58 58.2 19.5 V 703 – Catalina Sky Survey MPS 434087
2012 10 06.46507 02 26 06.54 +14 58 59.4 19.6 V 703 – Catalina Sky Survey MPS 434087
2012 10 06.47303 02 26 06.25 +14 58 59.8 19.2 V 703 – Catalina Sky Survey MPS 434087
2012 10 08.25707 02 24 50.96 +14 58 55.7 19.7 V 691 – Steward Observatory, Kitt Peak-Spacewatch MPS 434087
2012 10 08.27473 02 24 50.22 +14 58 55.3 21.2 V 691 – Steward Observatory, Kitt Peak-Spacewatch MPS 434087
2012 10 08.29238 02 24 49.38 +14 58 55.7 19.8 V 691 – Steward Observatory, Kitt Peak-Spacewatch MPS 434087
2012 10 16.18816 02 18 39.07 +14 55 41.9 21.1 V 691 – Steward Observatory, Kitt Peak-Spacewatch MPS 434972
2012 10 16.20584 02 18 38.17 +14 55 41.2 20.8 V 691 – Steward Observatory, Kitt Peak-Spacewatch MPS 434972
2012 10 16.22351 02 18 37.28 +14 55 40.2 20.6 V 691 – Steward Observatory, Kitt Peak-Spacewatch MPS 434972
2012 11 02.15932 02 03 45.54 +14 37 22.8 18.5 V 703 – Catalina Sky Survey MPS 441581
2012 11 02.16833 02 03 45.18 +14 37 23.2 19.8 V 703 – Catalina Sky Survey MPS 441581
2012 11 02.17733 02 03 44.60 +14 37 21.7 19.4 V 703 – Catalina Sky Survey MPS 441582
2012 11 02.18630 02 03 44.06 +14 37 22.7 19.0 V 703 – Catalina Sky Survey MPS 441582
2012 11 02.322887 02 03 37.016 +14 37 11.72 19.2 i F51 – Pan-STARRS 1, Haleakala MPS 441582
2012 11 02.335040 02 03 36.363 +14 37 10.83 19.1 i F51 – Pan-STARRS 1, Haleakala MPS 441582
2012 11 07.276689 01 59 22.709 +14 30 39.50 19.2 w F51 – Pan-STARRS 1, Haleakala MPS 441582
2012 11 07.290734 01 59 21.985 +14 30 38.42 19.1 w F51 – Pan-STARRS 1, Haleakala MPS 441582
2012 11 07.304802 01 59 21.265 +14 30 37.45 19.2 w F51 – Pan-STARRS 1, Haleakala MPS 441582
2012 11 07.318915 01 59 20.534 +14 30 36.32 19.2 w F51 – Pan-STARRS 1, Haleakala MPS 441582
2012 11 13.23566 01 54 37.41 +14 23 15.2 19.3   704 – Lincoln Laboratory ETS, New Mexico MPS 443307
2012 11 13.25115 01 54 36.66 +14 23 13.2 19.7   704 – Lincoln Laboratory ETS, New Mexico MPS 443307
2012 11 13.26703 01 54 35.93 +14 23 11.5 19.7   704 – Lincoln Laboratory ETS, New Mexico MPS 443307
2012 11 13.28231 01 54 35.21 +14 23 10.4 19.7   704 – Lincoln Laboratory ETS, New Mexico MPS 443307
2012 11 13.29861 01 54 34.37 +14 23 10.6 19.8   704 – Lincoln Laboratory ETS, New Mexico MPS 443307
2012 11 13.32659 01 54 33.22 +14 23 08.0 18.8 V 703 – Catalina Sky Survey MPS 443307
2012 11 13.33361 01 54 32.94 +14 23 08.5 18.7 V 703 – Catalina Sky Survey MPS 443307
2012 11 13.34065 01 54 32.58 +14 23 06.2 18.5 V 703 – Catalina Sky Survey MPS 443307
2012 11 13.34771 01 54 32.25 +14 23 07.5 18.6 V 703 – Catalina Sky Survey MPS 443307
2014 01 03.33710 08 59 17.49 +31 26 33.3 20.7 V 703 – Catalina Sky Survey MPS 495176
